Time,TemperatureF,DewpointF,PressureIn,WindDirection,WindDirectionDegrees,WindSpeedMPH,WindSpeedGustMPH,Humidity,HourlyPrecipIn,Conditions,Clouds,dailyrainin,SoftwareType,DateUTC
2013-10-04 00:02:00,61.0,58.0,-100.00,East,90,1.0,2.0,90,-99.99,,,-99.99,,2013-10-04 05:02:00,
2013-10-04 00:40:00,61.0,58.0,-100.00,East,90,1.0,2.0,90,-99.99,,,-99.99,,2013-10-04 05:40:00,
2013-10-04 00:50:00,61.0,58.0,-100.00,East,90,1.0,2.0,90,-99.99,,,-99.99,,2013-10-04 05:50:00,
2013-10-04 00:58:00,61.0,58.0,-100.00,East,90,1.0,2.0,90,-99.99,,,-99.99,,2013-10-04 05:58:00,
2013-10-04 01:01:00,59.0,56.0,-100.00,North,355,0.0,1.0,90,-99.99,,,-99.99,,2013-10-04 06:01:00,
2013-10-04 01:28:00,59.0,56.0,-100.00,North,355,0.0,1.0,90,-99.99,,,-99.99,,2013-10-04 06:28:00,
2013-10-04 01:38:00,59.0,56.0,-100.00,North,355,0.0,1.0,90,-99.99,,,-99.99,,2013-10-04 06:38:00,
2013-10-04 01:48:00,59.0,56.0,-100.00,North,355,0.0,1.0,90,-99.99,,,-99.99,,2013-10-04 06:48:00,
2013-10-04 01:58:00,59.0,56.0,-100.00,North,355,0.0,1.0,90,-99.99,,,-99.99,,2013-10-04 06:58:00,
2013-10-04 02:02:00,60.0,57.0,-100.00,NNW,335,0.0,2.0,90,-99.99,,,-99.99,,2013-10-04 07:02:00,
2013-10-04 02:28:00,60.0,57.0,-100.00,NNW,335,0.0,2.0,90,-99.99,,,-99.99,,2013-10-04 07:28:00,
2013-10-04 02:38:00,60.0,57.0,-100.00,NNW,335,0.0,2.0,90,-99.99,,,-99.99,,2013-10-04 07:38:00,
2013-10-04 02:48:00,60.0,57.0,-100.00,NNW,335,0.0,2.0,90,-99.99,,,-99.99,,2013-10-04 07:48:00,
2013-10-04 02:58:00,60.0,57.0,-100.00,NNW,335,0.0,2.0,90,-99.99,,,-99.99,,2013-10-04 07:58:00,
2013-10-04 03:03:00,62.0,59.0,-100.00,WNW,290,0.0,2.0,90,-99.99,,,-99.99,,2013-10-04 08:03:00,
2013-10-04 03:28:00,62.0,59.0,-100.00,WNW,290,0.0,2.0,90,-99.99,,,-99.99,,2013-10-04 08:28:00,
2013-10-04 03:38:00,62.0,59.0,-100.00,WNW,290,0.0,2.0,90,-99.99,,,-99.99,,2013-10-04 08:38:00,
2013-10-04 03:48:00,62.0,59.0,-100.00,WNW,290,0.0,2.0,90,-99.99,,,-99.99,,2013-10-04 08:48:00,
2013-10-04 03:58:00,62.0,59.0,-100.00,WNW,290,0.0,2.0,90,-99.99,,,-99.99,,2013-10-04 08:58:00,
2013-10-04 04:01:00,61.0,58.0,-100.00,WNW,300,1.0,2.0,90,-99.99,,,-99.99,,2013-10-04 09:01:00,
2013-10-04 04:28:00,61.0,58.0,-100.00,WNW,300,1.0,2.0,90,-99.99,,,-99.99,,2013-10-04 09:28:00,
2013-10-04 04:40:00,61.0,58.0,-100.00,WNW,300,1.0,2.0,90,-99.99,,,-99.99,,2013-10-04 09:40:00,
2013-10-04 04:51:00,61.0,58.0,-100.00,WNW,300,1.0,2.0,90,-99.99,,,-99.99,,2013-10-04 09:51:00,
2013-10-04 05:00:00,61.0,58.0,-100.00,WNW,300,1.0,2.0,90,-99.99,,,-99.99,,2013-10-04 10:00:00,
2013-10-04 05:02:00,61.0,58.0,-100.00,East,90,0.0,4.0,90,-99.99,,,-99.99,,2013-10-04 10:02:00,
2013-10-04 05:31:00,61.0,58.0,-100.00,East,90,0.0,4.0,90,-99.99,,,-99.99,,2013-10-04 10:31:00,
2013-10-04 05:41:00,61.0,58.0,-100.00,East,90,0.0,4.0,90,-99.99,,,-99.99,,2013-10-04 10:41:00,
2013-10-04 05:51:00,61.0,58.0,-100.00,East,90,0.0,4.0,90,-99.99,,,-99.99,,2013-10-04 10:51:00,
2013-10-04 06:00:00,61.0,58.0,-100.00,East,90,0.0,4.0,90,-99.99,,,-99.99,,2013-10-04 11:00:00,
2013-10-04 06:02:00,64.0,61.0,-100.00,West,270,1.0,7.0,90,-99.99,,,-99.99,,2013-10-04 11:02:00,
2013-10-04 06:31:00,64.0,61.0,-100.00,West,270,1.0,7.0,90,-99.99,,,-99.99,,2013-10-04 11:31:00,
2013-10-04 06:40:00,64.0,61.0,-100.00,West,270,1.0,7.0,90,-99.99,,,-99.99,,2013-10-04 11:40:00,
2013-10-04 06:50:00,64.0,61.0,-100.00,West,270,1.0,7.0,90,-99.99,,,-99.99,,2013-10-04 11:50:00,
2013-10-04 07:00:00,64.0,61.0,-100.00,West,270,1.0,7.0,90,-99.99,,,-99.99,,2013-10-04 12:00:00,
2013-10-04 07:31:00,64.0,61.0,-100.00,NE,35,0.0,6.0,90,-99.99,,,-99.99,,2013-10-04 12:31:00,
2013-10-04 07:40:00,64.0,61.0,-100.00,NE,35,0.0,6.0,90,-99.99,,,-99.99,,2013-10-04 12:40:00,
2013-10-04 07:50:00,64.0,61.0,-100.00,NE,35,0.0,6.0,90,-99.99,,,-99.99,,2013-10-04 12:50:00,
2013-10-04 08:02:00,64.0,61.0,-100.00,North,5,1.0,3.0,90,-99.99,,,-99.99,,2013-10-04 13:02:00,
2013-10-04 08:30:00,64.0,61.0,-100.00,North,5,1.0,3.0,90,-99.99,,,-99.99,,2013-10-04 13:30:00,
2013-10-04 08:40:00,64.0,61.0,-100.00,North,5,1.0,3.0,90,-99.99,,,-99.99,,2013-10-04 13:40:00,
2013-10-04 08:50:00,64.0,61.0,-100.00,North,5,1.0,3.0,90,-99.99,,,-99.99,,2013-10-04 13:50:00,
2013-10-04 08:59:00,64.0,61.0,-100.00,North,5,1.0,3.0,90,-99.99,,,-99.99,,2013-10-04 13:59:00,
2013-10-04 09:01:00,64.0,62.0,-100.00,East,90,2.0,6.0,90,-99.99,,,-99.99,,2013-10-04 14:01:00,
2013-10-04 09:31:00,64.0,62.0,-100.00,East,90,2.0,6.0,90,-99.99,,,-99.99,,2013-10-04 14:31:00,
2013-10-04 09:40:00,64.0,62.0,-100.00,East,90,2.0,6.0,90,-99.99,,,-99.99,,2013-10-04 14:40:00,
2013-10-04 09:50:00,64.0,62.0,-100.00,East,90,2.0,6.0,90,-99.99,,,-99.99,,2013-10-04 14:50:00,
2013-10-04 10:00:00,64.0,62.0,-100.00,East,90,2.0,6.0,90,-99.99,,,-99.99,,2013-10-04 15:00:00,
2013-10-04 10:03:00,64.0,62.0,-100.00,SSE,150,3.0,5.0,90,-99.99,,,-99.99,,2013-10-04 15:03:00,
2013-10-04 10:31:00,64.0,62.0,-100.00,SSE,150,3.0,5.0,90,-99.99,,,-99.99,,2013-10-04 15:31:00,
2013-10-04 10:41:00,64.0,62.0,-100.00,SSE,150,3.0,5.0,90,-99.99,,,-99.99,,2013-10-04 15:41:00,
2013-10-04 10:51:00,64.0,62.0,-100.00,SSE,150,3.0,5.0,90,-99.99,,,-99.99,,2013-10-04 15:51:00,
2013-10-04 11:00:00,64.0,62.0,-100.00,SSE,150,3.0,5.0,90,-99.99,,,-99.99,,2013-10-04 16:00:00,
2013-10-04 11:02:00,66.0,63.0,-100.00,NW,320,4.0,6.0,90,-99.99,,,-99.99,,2013-10-04 16:02:00,
2013-10-04 11:31:00,66.0,63.0,-100.00,NW,320,4.0,6.0,90,-99.99,,,-99.99,,2013-10-04 16:31:00,
2013-10-04 11:41:00,66.0,63.0,-100.00,NW,320,4.0,6.0,90,-99.99,,,-99.99,,2013-10-04 16:41:00,
2013-10-04 11:51:00,66.0,63.0,-100.00,NW,320,4.0,6.0,90,-99.99,,,-99.99,,2013-10-04 16:51:00,
2013-10-04 12:00:00,66.0,63.0,-100.00,NW,320,4.0,6.0,90,-99.99,,,-99.99,,2013-10-04 17:00:00,
2013-10-04 12:01:00,66.0,62.0,-100.00,South,190,0.0,3.0,89,-99.99,,,-99.99,,2013-10-04 17:01:00,
2013-10-04 12:32:00,66.0,62.0,-100.00,South,190,0.0,3.0,89,-99.99,,,-99.99,,2013-10-04 17:32:00,
2013-10-04 13:33:00,66.0,63.0,-100.00,ESE,110,3.0,6.0,89,-99.99,,,-99.99,,2013-10-04 18:33:00,
2013-10-04 13:42:00,66.0,63.0,-100.00,ESE,110,3.0,6.0,89,-99.99,,,-99.99,,2013-10-04 18:42:00,
2013-10-04 13:53:00,66.0,63.0,-100.00,ESE,110,3.0,6.0,89,-99.99,,,-99.99,,2013-10-04 18:53:00,
2013-10-04 14:02:00,66.0,63.0,-100.00,ESE,110,3.0,6.0,89,-99.99,,,-99.99,,2013-10-04 19:02:00,
2013-10-04 14:22:00,67.0,63.0,-100.00,NE,55,2.0,6.0,89,-99.99,,,-99.99,,2013-10-04 19:22:00,
2013-10-04 14:32:00,67.0,63.0,-100.00,NE,55,2.0,6.0,89,-99.99,,,-99.99,,2013-10-04 19:32:00,
2013-10-04 14:43:00,67.0,63.0,-100.00,NE,55,2.0,6.0,89,-99.99,,,-99.99,,2013-10-04 19:43:00,
2013-10-04 14:52:00,67.0,63.0,-100.00,NE,55,2.0,6.0,89,-99.99,,,-99.99,,2013-10-04 19:52:00,
2013-10-04 15:01:00,67.0,61.0,-100.00,East,90,6.0,10.0,82,-99.99,,,-99.99,,2013-10-04 20:01:00,
2013-10-04 15:22:00,67.0,61.0,-100.00,East,90,6.0,10.0,82,-99.99,,,-99.99,,2013-10-04 20:22:00,
2013-10-04 15:32:00,67.0,61.0,-100.00,East,90,6.0,10.0,82,-99.99,,,-99.99,,2013-10-04 20:32:00,
2013-10-04 15:43:00,67.0,61.0,-100.00,East,90,6.0,10.0,82,-99.99,,,-99.99,,2013-10-04 20:43:00,
2013-10-04 15:53:00,67.0,61.0,-100.00,East,90,6.0,10.0,82,-99.99,,,-99.99,,2013-10-04 20:53:00,
2013-10-04 16:02:00,67.0,60.0,-100.00,East,80,6.0,10.0,79,-99.99,,,-99.99,,2013-10-04 21:02:00,
2013-10-04 16:22:00,67.0,60.0,-100.00,East,80,6.0,10.0,79,-99.99,,,-99.99,,2013-10-04 21:22:00,
2013-10-04 16:33:00,67.0,60.0,-100.00,East,80,6.0,10.0,79,-99.99,,,-99.99,,2013-10-04 21:33:00,
2013-10-04 16:43:00,67.0,60.0,-100.00,East,80,6.0,10.0,79,-99.99,,,-99.99,,2013-10-04 21:43:00,
2013-10-04 16:54:00,67.0,60.0,-100.00,East,80,6.0,10.0,79,-99.99,,,-99.99,,2013-10-04 21:54:00,
2013-10-04 17:01:00,68.0,61.0,-100.00,NNE,25,2.0,7.0,79,-99.99,,,-99.99,,2013-10-04 22:01:00,
2013-10-04 17:23:00,68.0,61.0,-100.00,NNE,25,2.0,7.0,79,-99.99,,,-99.99,,2013-10-04 22:23:00,
2013-10-04 17:33:00,68.0,61.0,-100.00,NNE,25,2.0,7.0,79,-99.99,,,-99.99,,2013-10-04 22:33:00,
2013-10-04 17:43:00,68.0,61.0,-100.00,NNE,25,2.0,7.0,79,-99.99,,,-99.99,,2013-10-04 22:43:00,
2013-10-04 17:52:00,68.0,61.0,-100.00,NNE,25,2.0,7.0,79,-99.99,,,-99.99,,2013-10-04 22:52:00,
2013-10-04 18:02:00,66.0,61.0,-100.00,East,90,8.0,14.0,83,-99.99,,,-99.99,,2013-10-04 23:02:00,
2013-10-04 18:22:00,66.0,61.0,-100.00,East,90,8.0,14.0,83,-99.99,,,-99.99,,2013-10-04 23:22:00,
2013-10-04 18:33:00,66.0,61.0,-100.00,East,90,8.0,14.0,83,-99.99,,,-99.99,,2013-10-04 23:33:00,
2013-10-04 18:42:00,66.0,61.0,-100.00,East,90,8.0,14.0,83,-99.99,,,-99.99,,2013-10-04 23:42:00,
2013-10-04 18:53:00,66.0,61.0,-100.00,East,90,8.0,14.0,83,-99.99,,,-99.99,,2013-10-04 23:53:00,
2013-10-04 19:01:00,65.0,61.0,-100.00,East,95,7.0,12.0,86,-99.99,,,-99.99,,2013-10-05 00:01:00,
2013-10-04 19:23:00,65.0,61.0,-100.00,East,95,7.0,12.0,86,-99.99,,,-99.99,,2013-10-05 00:23:00,
2013-10-04 19:32:00,65.0,61.0,-100.00,East,95,7.0,12.0,86,-99.99,,,-99.99,,2013-10-05 00:32:00,
2013-10-04 19:42:00,65.0,61.0,-100.00,East,95,7.0,12.0,86,-99.99,,,-99.99,,2013-10-05 00:42:00,
2013-10-04 19:53:00,65.0,61.0,-100.00,East,95,7.0,12.0,86,-99.99,,,-99.99,,2013-10-05 00:53:00,
2013-10-04 20:01:00,65.0,62.0,-100.00,East,90,9.0,20.0,89,-99.99,,,-99.99,,2013-10-05 01:01:00,
2013-10-04 20:22:00,65.0,62.0,-100.00,East,90,9.0,20.0,89,-99.99,,,-99.99,,2013-10-05 01:22:00,
2013-10-04 20:32:00,65.0,62.0,-100.00,East,90,9.0,20.0,89,-99.99,,,-99.99,,2013-10-05 01:32:00,
2013-10-04 20:43:00,65.0,62.0,-100.00,East,90,9.0,20.0,89,-99.99,,,-99.99,,2013-10-05 01:43:00,
2013-10-04 20:52:00,65.0,62.0,-100.00,East,90,9.0,20.0,89,-99.99,,,-99.99,,2013-10-05 01:52:00,
2013-10-04 21:01:00,65.0,61.0,-100.00,East,85,11.0,16.0,89,-99.99,,,-99.99,,2013-10-05 02:01:00,
2013-10-04 21:22:00,65.0,61.0,-100.00,East,85,11.0,16.0,89,-99.99,,,-99.99,,2013-10-05 02:22:00,
2013-10-04 21:32:00,65.0,61.0,-100.00,East,85,11.0,16.0,89,-99.99,,,-99.99,,2013-10-05 02:32:00,
2013-10-04 21:42:00,65.0,61.0,-100.00,East,85,11.0,16.0,89,-99.99,,,-99.99,,2013-10-05 02:42:00,
2013-10-04 21:52:00,65.0,61.0,-100.00,East,85,11.0,16.0,89,-99.99,,,-99.99,,2013-10-05 02:52:00,
2013-10-04 22:02:00,64.0,61.0,-100.00,East,90,11.0,16.0,89,-99.99,,,-99.99,,2013-10-05 03:02:00,
2013-10-04 22:23:00,64.0,61.0,-100.00,East,90,11.0,16.0,89,-99.99,,,-99.99,,2013-10-05 03:23:00,
2013-10-04 22:34:00,64.0,61.0,-100.00,East,90,11.0,16.0,89,-99.99,,,-99.99,,2013-10-05 03:34:00,
2013-10-04 22:45:00,64.0,61.0,-100.00,East,90,11.0,16.0,89,-99.99,,,-99.99,,2013-10-05 03:45:00,
2013-10-04 22:55:00,64.0,61.0,-100.00,East,90,11.0,16.0,89,-99.99,,,-99.99,,2013-10-05 03:55:00,
2013-10-04 23:02:00,64.0,60.0,-100.00,ESE,105,7.0,16.0,89,-99.99,,,-99.99,,2013-10-05 04:02:00,
2013-10-04 23:24:00,64.0,60.0,-100.00,ESE,105,7.0,16.0,89,-99.99,,,-99.99,,2013-10-05 04:24:00,
2013-10-04 23:33:00,64.0,60.0,-100.00,ESE,105,7.0,16.0,89,-99.99,,,-99.99,,2013-10-05 04:33:00,
2013-10-04 23:44:00,64.0,60.0,-100.00,ESE,105,7.0,16.0,89,-99.99,,,-99.99,,2013-10-05 04:44:00,
2013-10-04 23:53:00,64.0,60.0,-100.00,ESE,105,7.0,16.0,89,-99.99,,,-99.99,,2013-10-05 04:53:00,